Temp
30 31 31 29 29 30 27 29 24 28 30 37 40 42 46 48 47 44 44 44 44 44 44 44 43 43 42 42 41 40 38 37 35 34 33 33 32 33 33 33 31 26 25 25
22 29 29 26 29 30 31 31 32 33 30 42 46 46 44 45 46 43 44 46 46 48 46 44 44 44 43 42 41 41 39 36 34 33 33 33 32 32 32 30 29 29 29 28
18 28 27 20 26 30 35 37 36 30 36 44 42 42 42 42 43 43 44 45 47 47 48 47 46 45 42 42 40 40 39 36 34 34 33 32 33 31 30 29 30 30 29 29
19 23 12 30 39 38 35 37 38 38 40 43 42 40 40 42 44 44 47 46 46 45 44 45 48 46 45 42 40 39 37 36 35 34 32 31 32 31 30 30 28 29 28 29
18 19 26 31 35 33 30 31 40 36 38 40 38 38 39 43 45 45 44 45 44 43 42 43 45 45 42 40 40 39 35 35 35 34 32 32 32 31 31 30 28 29 29 29
20 17 16 28 33 36 39 26 39 39 38 37 37 27 33 41 42 42 42 43 42 43 43 42 41 42 40 39 39 37 37 36 36 35 34 33 32 30 30 29 29 29 30 30
20 19 24 31 34 35 25 28 37 39 39 38 35 37 40 40 40 41 42 43 43 40 40 40 40 40 38 38 37 39 38 37 36 36 35 34 31 30 29 30 29 29 28 29
19 13 15 37 33 27 32 34 38 40 39 40 41 41 41 41 40 41 42 42 40 40 39 37 39 40 38 38 39 38 37 37 35 35 35 32 30 29 30 30 28 27 26 26
23 22 35 36 31 35 37 38 40 39 41 40 39 39 41 40 41 41 42 41 40 38 37 38 42 42 39 39 38 38 37 36 34 33 33 31 29 29 29 29 27 26 27 26
26 32 32 34 38 39 43 41 43 43 41 39 39 40 39 40 39 40 39 40 38 37 36 39 41 40 40 39 39 38 35 34 33 32 31 31 31 30 29 28 28 28 27 25
26 31 34 39 40 40 41 42 43 44 41 40 39 40 40 40 40 40 39 40 39 37 36 39 40 39 37 39 39 37 35 34 33 33 32 31 31 30 30 32 31 29 27 26
25 34 32 33 38 40 38 41 42 41 41 42 41 40 40 39 39 40 39 40 39 39 37 36 39 39 39 40 39 37 34 33 32 32 31 31 31 30 33 31 33 33 32 28
31 34 33 35 38 43 41 40 41 40 41 39 41 40 40 39 40 40 40 41 42 40 38 37 37 37 39 40 39 37 35 34 33 32 31 30 30 29 27 30 33 32 31 31
39 37 35 40 38 43 42 40 40 40 40 40 39 41 40 39 39 40 40 42 43 42 40 38 36 35 38 38 37 36 35 34 33 31 30 29 29 28 28 27 26 27 31 31
40 41 39 38 40 42 42 39 36 36 36 36 38 37 37 38 38 38 39 40 41 42 39 37 36 34 36 36 35 33 34 32 31 30 29 29 28 27 27 27 25 25 24 27
36 37 35 34 37 40 40 37 34 34 34 34 34 33 33 38 38 37 37 38 35 33 35 35 34 34 34 35 33 32 33 31 30 29 28 28 27 26 25 25 24 23 24 26
33 32 33 33 34 36 37 37 34 34 34 34 34 34 32 34 36 37 37 35 34 33 33 34 32 32 32 33 32 30 29 29 29 29 27 26 26 26 26 24 24 24 25 22
37 37 35 34 34 34 35 36 35 35 34 34 33 32 31 31 33 34 34 34 33 32 32 31 33 32 32 31 31 30 29 28 28 27 26 26 26 26 25 24 24 23 17 21
37 36 35 35 33 34 35 34 34 34 33 33 32 31 31 31 33 33 33 33 33 33 31 32 32 33 31 30 31 30 28 28 27 27 27 25 25 24 24 23 23 22 22 22
35 36 35 34 34 33 32 32 33 33 33 33 33 32 31 32 33 33 34 33 31 33 30 29 31 31 30 30 30 30 29 28 28 27 26 26 25 24 24 23 23 21 21 22
33 34 33 32 32 32 28 28 30 30 32 33 32 32 31 31 31 32 31 30 29 27 31 30 31 31 32 31 31 30 30 29 28 27 26 25 24 24 23 23 23 22 22 22
33 33 33 32 32 30 33 30 28 25 28 32 33 33 32 30 30 30 30 30 29 30 30 30 30 31 31 32 31 30 30 29 28 27 25 24 24 23 22 23 23 24 24 24
33 33 33 31 31 32 32 31 32 26 27 29 30 31 30 29 29 29 28 30 30 30 29 29 29 28 30 30 29 28 27 27 26 26 25 25 24 24 24 24 24 24 24 23
31 33 32 32 30 31 30 32 32 31 26 29 30 31 30 30 30 29 28 30 30 28 28 27 27 28 27 27 27 26 26 24 24 23 22 21 24 24 24 24 22 21 18 17
30 31 30 31 29 29 32 33 33 32 31 31 30 31 30 31 30 26 26 29 30 28 25 19 22 24 25 23 22 21 22 22 22 23 23 23 23 22 21 20 18 16 15 15
28 28 30 29 29 31 32 32 31 32 32 30 29 28 27 25 27 26 20 25 26 26 18 15 19 22 23 22 21 21 21 22 23 22 22 21 19 18 16 14 15 16 14 12
26 23 27 27 29 32 32 32 30 30 31 31 30 28 27 26 21 21 21 23 24 24 20 20 24 25 24 25 24 23 23 22 22 22 19 17 15 15 15 14 14 14 13 13
MSLP
1015.60 1014.97 1014.52 1013.38 1012.19 1011.13 1010.43 1009.40 1008.88 1006.62 1005.44 1003.39 1003.06 1002.80 1002.49 1002.65 1002.48 1002.45 1002.65 1003.04 1003.27 1003.43 1003.71 1004.10 1004.50 1005.66 1006.46 1007.27 1007.81 1008.70 1010.04 1011.31 1012.50 1013.03 1014.07 1014.73 1016.11 1016.86 1017.83 1019.08 1019.78 1020.01 1020.92 1022.21
1015.33 1014.47 1013.55 1012.41 1011.25 1010.05 1009.05 1007.63 1006.47 1005.44 1003.84 1002.66 1002.18 1001.98 1001.79 1001.67 1001.54 1001.64 1001.63 1002.13 1002.74 1002.58 1003.10 1003.57 1004.31 1005.03 1006.06 1007.06 1007.98 1009.07 1010.14 1011.15 1012.23 1012.94 1013.81 1014.89 1016.03 1016.87 1017.72 1018.98 1020.03 1020.82 1021.39 1021.75
1014.68 1013.96 1013.31 1011.21 1008.37 1008.08 1006.61 1005.58 1004.94 1004.06 1002.35 1001.88 1001.62 1001.53 1001.42 1001.02 1001.00 1001.03 1001.39 1001.64 1001.50 1002.06 1002.46 1002.86 1002.98 1003.66 1004.29 1006.04 1007.19 1008.61 1009.30 1010.62 1011.42 1012.46 1013.60 1015.09 1015.34 1016.62 1017.90 1019.47 1020.73 1020.86 1021.28 1021.69
1014.22 1014.06 1011.55 1007.69 1006.63 1006.02 1005.51 1004.51 1003.84 1003.09 1002.38 1001.80 1001.75 1001.39 1001.31 1000.93 1000.59 1000.38 1000.56 1001.54 1001.90 1002.12 1002.21 1001.81 1002.09 1002.95 1004.30 1005.11 1006.62 1007.54 1008.78 1010.05 1011.06 1011.92 1013.19 1014.76 1015.38 1016.65 1018.24 1019.06 1019.56 1020.29 1021.68 1022.12
1014.18 1012.80 1009.83 1007.69 1006.86 1006.50 1005.43 1004.00 1003.54 1002.91 1002.29 1001.97 1001.75 1001.82 1001.46 1001.10 1001.10 1000.78 1001.00 1001.31 1001.81 1002.14 1002.42 1002.11 1002.15 1002.67 1003.81 1005.09 1005.87 1006.73 1007.74 1009.07 1010.43 1011.52 1012.64 1014.28 1015.60 1016.55 1017.71 1018.65 1019.54 1020.49 1021.05 1022.30
1013.88 1012.54 1010.03 1008.32 1007.67 1007.27 1005.82 1004.55 1004.01 1003.55 1002.73 1002.44 1002.49 1002.36 1001.86 1001.39 1001.32 1001.24 1001.38 1001.72 1001.90 1002.00 1002.03 1002.12 1002.31 1002.73 1003.63 1004.40 1005.32 1006.37 1007.49 1008.75 1010.19 1010.98 1012.48 1013.92 1014.89 1016.36 1017.70 1018.58 1019.21 1020.29 1021.41 1021.95
1013.60 1012.48 1009.89 1008.89 1008.43 1007.00 1006.35 1006.11 1004.61 1004.05 1003.51 1003.22 1003.00 1002.84 1002.19 1001.75 1001.66 1001.60 1001.74 1001.92 1002.08 1002.28 1002.35 1002.34 1002.66 1003.05 1003.70 1004.39 1005.44 1006.63 1008.01 1008.98 1009.89 1010.96 1012.61 1013.91 1015.46 1016.41 1017.57 1018.41 1019.25 1020.42 1021.45 1022.03
1013.69 1012.47 1009.78 1007.98 1008.16 1008.49 1007.36 1005.46 1005.27 1004.40 1003.78 1003.66 1003.27 1002.75 1002.51 1002.27 1002.25 1002.19 1002.12 1002.06 1002.22 1002.47 1002.76 1003.09 1003.18 1003.53 1004.31 1005.07 1005.86 1006.77 1007.63 1008.99 1010.30 1011.29 1012.42 1013.88 1015.11 1016.75 1017.49 1018.48 1019.38 1020.46 1021.39 1022.09
1014.28 1012.11 1009.86 1009.41 1009.42 1008.25 1007.27 1006.00 1004.86 1004.44 1003.86 1003.66 1003.30 1002.99 1002.77 1002.56 1002.47 1002.39 1002.41 1002.37 1002.46 1002.70 1003.01 1003.37 1003.72 1003.88 1004.35 1005.01 1005.81 1006.72 1007.72 1008.98 1010.20 1011.44 1012.55 1013.70 1015.07 1016.40 1017.54 1018.74 1019.35 1020.15 1020.98 1021.82
1013.91 1010.86 1010.37 1009.08 1007.79 1007.53 1006.75 1006.03 1004.92 1004.06 1003.64 1003.28 1003.13 1002.70 1002.72 1002.46 1002.25 1002.29 1002.38 1002.45 1002.63 1002.88 1003.24 1003.34 1003.69 1004.08 1004.62 1005.04 1005.71 1006.63 1008.08 1009.27 1010.46 1011.26 1012.52 1013.85 1015.02 1016.24 1017.25 1018.09 1018.83 1019.64 1020.53 1021.35
1012.23 1011.23 1010.10 1007.96 1007.55 1007.22 1006.06 1005.32 1004.60 1003.91 1003.61 1003.01 1002.73 1002.56 1002.18 1002.08 1001.82 1001.85 1002.18 1002.25 1002.50 1002.80 1003.30 1003.51 1003.99 1004.50 1004.37 1005.48 1006.11 1007.06 1008.26 1009.34 1010.36 1011.39 1012.43 1013.82 1014.95 1015.74 1016.56 1017.31 1017.69 1018.64 1019.75 1020.63
1011.19 1010.72 1010.65 1009.00 1007.79 1007.03 1006.45 1005.50 1004.76 1004.33 1003.52 1002.76 1002.53 1002.15 1001.88 1001.97 1001.71 1001.77 1001.78 1001.89 1002.11 1002.39 1002.96 1003.47 1003.99 1004.60 1005.31 1005.66 1006.26 1007.16 1008.26 1009.37 1010.37 1011.49 1012.74 1013.81 1014.80 1015.87 1016.60 1017.05 1017.89 1018.67 1019.34 1019.97
1011.01 1010.63 1010.26 1009.06 1007.94 1006.87 1006.08 1005.39 1004.46 1003.67 1002.99 1002.64 1001.86 1001.64 1001.45 1001.48 1001.27 1001.25 1001.32 1001.36 1001.55 1001.88 1002.54 1003.20 1003.88 1004.45 1005.35 1005.72 1006.50 1007.24 1008.03 1009.27 1010.54 1011.59 1012.61 1013.65 1014.68 1015.46 1016.41 1017.47 1017.89 1018.47 1019.16 1019.99
1010.36 1009.57 1008.91 1008.25 1007.57 1006.70 1006.11 1005.39 1004.65 1003.75 1003.26 1002.43 1001.85 1001.31 1001.23 1001.25 1001.13 1001.23 1001.23 1001.21 1001.43 1001.77 1002.42 1003.03 1003.68 1004.45 1005.24 1005.70 1006.55 1007.41 1008.40 1009.32 1010.28 1011.39 1012.48 1013.55 1014.42 1015.25 1016.05 1016.91 1017.79 1018.59 1019.36 1019.97
1009.53 1009.35 1009.14 1008.60 1007.69 1006.80 1006.32 1005.72 1004.80 1004.45 1003.92 1003.23 1002.91 1002.57 1002.15 1001.71 1001.66 1001.64 1001.36 1001.23 1001.31 1001.53 1002.09 1002.80 1003.65 1004.63 1005.34 1005.97 1006.74 1007.55 1008.58 1009.62 1010.63 1011.72 1012.66 1013.45 1014.35 1015.25 1016.09 1016.82 1017.72 1018.67 1019.50 1020.07
1009.84 1009.42 1009.17 1008.58 1007.93 1007.22 1006.74 1006.24 1005.95 1005.42 1004.85 1004.51 1004.03 1003.56 1003.18 1002.27 1001.92 1002.10 1002.01 1002.02 1002.20 1002.49 1002.78 1003.30 1003.87 1004.66 1005.58 1006.34 1007.16 1008.03 1008.93 1009.77 1010.74 1011.77 1012.77 1013.61 1014.39 1015.21 1016.12 1016.87 1017.65 1018.45 1019.14 1019.69
1009.60 1009.26 1009.14 1008.85 1008.38 1007.77 1007.32 1006.99 1006.87 1006.45 1005.94 1005.40 1004.83 1004.31 1003.78 1003.03 1002.44 1002.47 1002.51 1002.83 1003.06 1003.29 1003.65 1003.89 1004.43 1005.17 1006.03 1006.70 1007.42 1008.37 1009.26 1010.21 1010.90 1011.88 1012.69 1013.47 1014.20 1015.02 1015.82 1016.62 1017.37 1018.07 1018.69 1019.14
1010.27 1010.10 1009.98 1009.72 1009.13 1008.48 1007.95 1007.56 1007.20 1006.75 1006.30 1005.76 1005.17 1004.64 1003.96 1003.43 1003.11 1002.94 1002.94 1003.16 1003.47 1003.92 1004.20 1004.63 1005.10 1005.70 1006.39 1007.01 1007.72 1008.62 1009.43 1010.28 1011.09 1011.85 1012.68 1013.41 1014.06 1014.74 1015.55 1016.31 1017.03 1017.71 1018.52 1019.09
1010.45 1010.27 1010.13 1009.98 1009.74 1009.16 1008.60 1008.05 1007.54 1007.05 1006.49 1005.88 1005.27 1004.77 1004.28 1003.75 1003.36 1003.00 1003.15 1003.46 1003.85 1004.20 1004.78 1005.20 1005.61 1005.98 1006.61 1007.24 1007.77 1008.61 1009.52 1010.32 1011.10 1011.90 1012.53 1013.21 1013.93 1014.59 1015.33 1016.00 1016.73 1017.44 1018.17 1018.80
1010.78 1010.54 1010.35 1010.11 1009.78 1009.47 1008.94 1008.49 1007.94 1007.25 1006.75 1006.23 1005.72 1005.22 1004.69 1004.26 1003.86 1003.59 1003.53 1003.74 1004.02 1004.04 1004.46 1005.22 1005.84 1006.29 1006.87 1007.39 1007.82 1008.67 1009.50 1010.19 1010.90 1011.68 1012.38 1013.03 1013.67 1014.39 1015.07 1015.68 1016.36 1017.11 1017.78 1018.33
1010.91 1010.68 1010.44 1010.11 1009.74 1009.38 1009.05 1008.63 1008.13 1007.61 1007.10 1006.53 1006.07 1005.71 1005.42 1005.15 1004.73 1004.48 1004.38 1004.39 1004.72 1004.73 1004.66 1005.22 1005.82 1006.42 1006.90 1007.50 1008.02 1008.70 1009.47 1010.19 1010.82 1011.48 1012.19 1012.81 1013.51 1014.22 1014.89 1015.51 1016.17 1016.76 1017.39 1017.94
1010.94 1010.64 1010.28 1009.93 1009.63 1009.27 1008.79 1008.47 1008.10 1007.79 1007.41 1006.82 1006.35 1005.98 1005.73 1005.56 1005.39 1005.19 1005.04 1004.83 1004.93 1005.20 1005.27 1005.56 1005.96 1006.41 1006.93 1007.57 1008.10 1008.81 1009.49 1010.08 1010.72 1011.40 1012.07 1012.65 1013.27 1013.97 1014.64 1015.26 1015.85 1016.37 1016.87 1017.42
1010.88 1010.57 1010.25 1009.91 1009.59 1009.20 1008.66 1008.27 1007.98 1007.74 1007.60 1007.25 1006.79 1006.40 1006.13 1005.93 1005.81 1005.70 1005.60 1005.56 1005.54 1005.67 1005.84 1006.03 1006.25 1006.66 1007.17 1007.68 1008.28 1008.79 1009.37 1009.93 1010.52 1011.13 1011.76 1012.35 1012.91 1013.55 1014.22 1014.83 1015.36 1015.88 1016.48 1017.07
1011.05 1010.55 1010.26 1009.88 1009.50 1009.14 1008.85 1008.33 1007.93 1007.54 1007.45 1007.15 1006.85 1006.54 1006.37 1006.10 1005.86 1005.79 1005.83 1005.84 1005.90 1006.04 1006.28 1006.48 1006.72 1006.99 1007.33 1007.82 1008.30 1008.81 1009.31 1009.82 1010.36 1010.94 1011.54 1012.02 1012.55 1013.15 1013.79 1014.41 1015.08 1015.67 1016.32 1017.01
1011.37 1010.87 1010.43 1010.01 1009.62 1009.37 1008.99 1008.48 1007.87 1007.35 1007.05 1006.82 1006.63 1006.47 1006.36 1006.24 1006.23 1005.93 1005.95 1006.04 1006.20 1006.41 1006.67 1006.78 1006.93 1007.19 1007.49 1007.96 1008.43 1008.87 1009.31 1009.80 1010.28 1010.76 1011.31 1011.91 1012.49 1013.07 1013.65 1014.27 1014.97 1015.71 1016.42 1017.05
1011.61 1011.27 1010.78 1010.28 1009.83 1009.22 1008.79 1008.46 1008.00 1007.46 1007.07 1006.71 1006.41 1006.32 1006.33 1006.26 1006.22 1006.10 1005.94 1006.11 1006.29 1006.62 1006.95 1007.07 1007.11 1007.30 1007.62 1008.00 1008.42 1008.83 1009.25 1009.72 1010.14 1010.60 1011.09 1011.69 1012.32 1012.99 1013.72 1014.47 1015.20 1015.88 1016.54 1017.23
1012.03 1011.55 1011.00 1010.38 1009.87 1009.25 1008.79 1008.34 1007.99 1007.51 1007.15 1006.70 1006.28 1005.96 1005.93 1006.05 1006.13 1006.13 1006.08 1006.01 1006.14 1006.38 1006.72 1006.94 1007.02 1007.26 1007.59 1007.97 1008.38 1008.76 1009.14 1009.57 1009.97 1010.52 1011.13 1011.83 1012.50 1013.15 1013.83 1014.54 1015.24 1015.96 1016.66 1017.34
Wind_Speed
16 17 21 23 25 26 27 26 25 28 29 27 22 17 23 18 15 11 13 13 11 10 8 10 13 13 11 8 12 13 12 12 12 12 11 13 12 12 12 10 9 9 10 7
17 19 22 24 24 27 26 30 30 28 31 25 22 18 15 16 16 12 15 11 9 10 8 11 12 13 12 10 12 12 14 14 13 13 13 13 13 12 12 9 9 10 10 9
20 16 16 19 24 23 19 23 20 20 20 18 17 11 9 9 8 10 6 9 10 6 5 10 14 16 17 16 14 15 14 13 14 15 14 13 13 12 12 11 9 7 8 10
16 11 23 16 10 12 11 18 13 13 16 18 13 6 5 6 5 6 7 6 2 3 4 9 13 15 12 17 16 16 15 15 14 15 15 13 14 14 13 11 12 10 9 8
8 13 22 18 11 9 2 13 10 10 10 6 2 1 4 3 5 3 4 5 3 1 2 6 9 12 16 15 15 17 17 17 16 17 17 16 15 14 12 11 10 10 10 10
6 7 7 4 18 23 12 11 12 10 12 5 3 2 5 2 2 2 3 3 6 7 5 2 4 11 14 14 14 15 16 17 16 16 16 16 15 14 11 10 11 9 10 11
7 5 9 9 22 17 4 4 13 9 7 3 2 3 5 1 2 3 3 5 4 3 5 5 5 8 9 11 12 12 14 14 15 15 14 13 12 11 11 11 11 10 10 9
4 4 8 16 23 8 14 13 14 12 5 6 8 7 4 5 4 5 6 5 2 2 2 3 6 10 10 11 11 13 15 15 14 15 13 12 13 10 11 11 11 10 10 7
4 7 23 26 20 20 18 15 14 10 13 6 7 6 6 6 5 6 6 5 2 3 5 4 7 8 11 12 15 16 15 15 15 15 13 14 14 13 10 11 10 10 9 8
11 6 15 20 25 16 13 15 19 12 13 7 9 8 7 7 7 6 4 4 2 5 4 4 4 6 7 12 14 15 15 15 14 13 13 12 9 10 10 10 10 9 9 8
11 17 18 16 15 20 23 23 17 15 8 9 5 11 7 6 8 6 5 4 4 6 5 6 7 8 10 12 14 14 14 13 12 11 12 11 9 10 10 10 11 11 9 9
9 13 12 20 24 25 20 18 19 15 14 14 7 9 6 7 6 6 6 5 5 6 7 7 8 10 11 13 14 15 13 11 10 10 10 9 9 8 10 13 16 15 17 11
11 15 21 25 24 15 15 17 20 19 16 14 14 8 6 5 4 6 6 7 7 8 7 10 10 11 10 12 13 14 13 13 10 11 10 10 10 10 9 9 16 18 20 18
17 18 10 7 12 13 14 14 15 10 9 11 9 4 3 3 2 2 4 4 4 7 9 11 12 11 11 12 13 12 12 14 11 10 10 9 9 9 8 9 8 7 12 12
10 8 8 10 11 14 16 12 16 14 14 15 13 10 7 4 3 2 3 4 2 8 10 13 12 10 10 11 12 13 11 9 9 9 8 9 9 8 7 8 7 7 5 5
9 5 9 11 14 13 15 16 14 16 17 15 14 14 13 8 2 3 4 5 4 4 7 9 10 10 11 11 12 10 10 14 11 9 9 8 8 8 8 8 7 7 7 7
8 13 15 13 13 13 14 9 11 12 13 14 15 15 13 9 2 4 4 4 5 5 5 7 8 9 9 11 11 8 8 9 12 8 8 8 8 8 8 8 8 7 7 6
7 6 8 11 12 12 12 12 9 10 10 11 10 10 10 6 4 4 3 5 6 6 4 6 9 10 9 10 10 8 8 8 8 8 7 7 7 7 7 7 7 7 3 4
9 9 9 12 11 11 10 10 10 10 9 10 10 10 9 5 4 2 4 4 5 6 5 6 8 11 10 10 11 8 8 9 8 7 7 8 7 7 7 6 6 5 6 7
8 8 8 9 10 9 10 10 10 9 8 9 8 9 9 9 6 3 1 3 1 2 8 8 10 8 9 11 12 8 9 9 9 8 7 7 7 7 6 7 7 6 6 6
6 6 8 8 8 8 7 7 8 10 10 7 7 7 6 7 7 4 3 1 4 1 7 11 8 7 7 9 8 8 8 8 8 8 8 7 7 6 6 6 6 7 6 6
5 5 7 7 7 8 9 7 6 6 8 8 7 6 6 5 5 4 3 1 2 4 3 4 5 8 8 10 6 7 7 7 7 6 6 6 6 7 6 7 7 6 6 6
5 5 6 6 7 8 9 6 6 4 7 7 8 7 4 2 2 3 3 2 2 4 3 3 8 11 12 7 6 6 7 8 7 7 6 6 7 7 7 7 6 6 6 6
7 7 7 6 5 7 9 10 8 6 4 5 6 5 4 3 3 1 2 1 5 4 3 4 6 10 7 5 5 6 6 6 6 5 6 7 6 6 6 6 6 4 5 6
7 9 7 8 8 6 10 12 10 7 6 5 5 5 5 3 3 2 1 1 2 3 2 3 6 8 4 5 5 5 6 6 6 7 6 6 6 6 5 5 5 6 5 5
8 6 7 7 6 5 5 7 8 7 6 7 5 3 3 3 3 2 2 3 3 3 2 2 3 4 4 5 5 5 5 5 6 5 6 5 5 5 6 6 6 6 6 5
6 6 6 7 6 7 7 6 8 9 9 8 8 4 4 3 3 2 2 2 3 4 3 3 4 4 4 4 4 5 4 4 5 6 5 5 5 6 6 6 6 6 6 7
Wind_Direction
278 278 278 273 274 279 274 274 272 278 278 267 259 253 257 267 271 237 224 225 218 221 198 175 174 199 206 184 160 156 152 151 156 142 141 135 138 138 135 144 143 130 120 134
267 272 267 274 273 262 269 271 266 266 268 264 276 275 257 254 261 231 227 216 226 222 196 177 176 180 173 169 168 164 164 151 148 136 137 139 141 137 132 125 133 140 139 135
278 280 305 276 257 256 256 266 262 261 261 277 285 271 264 269 255 234 202 203 228 202 232 195 185 193 190 179 164 164 154 151 150 142 141 147 135 130 124 134 135 123 120 124
272 298 270 268 249 253 272 276 271 262 263 267 265 270 230 251 224 214 224 121 189 282 303 282 191 183 179 163 168 161 151 154 150 146 141 145 142 142 149 146 136 128 132 129
253 254 277 287 325 336 300 299 289 270 277 285 165 189 280 281 337 17 18 2 357 344 234 290 178 164 159 164 163 160 163 159 157 155 147 151 154 148 145 142 136 145 142 151
303 280 279 45 348 335 292 298 6 317 290 223 206 57 273 246 290 4 2 331 329 331 329 164 144 146 154 160 163 171 165 159 158 151 153 159 146 146 143 143 143 145 155 162
278 280 270 25 341 326 232 357 328 328 342 353 327 231 283 201 287 334 316 326 344 357 327 321 133 144 153 154 168 157 156 151 149 147 150 140 137 137 145 146 142 152 158 160
305 299 282 354 338 356 315 293 304 315 298 313 302 314 298 284 295 306 305 313 1 64 42 112 141 146 153 160 154 143 141 143 144 143 139 136 133 143 147 144 149 151 146 142
231 259 297 300 286 287 289 308 310 291 302 272 280 279 282 281 264 264 265 294 349 121 127 143 168 160 158 153 145 144 143 147 142 137 139 139 145 148 146 156 155 154 155 155
313 272 278 288 290 281 301 321 317 290 275 262 268 275 266 261 255 243 247 272 166 146 156 143 147 137 153 150 147 143 146 144 144 140 142 145 145 154 158 160 158 159 159 160
267 281 297 279 303 318 319 321 317 321 299 287 261 268 239 266 268 254 237 248 179 180 170 151 150 135 149 152 148 144 141 143 144 141 140 144 154 160 163 171 166 164 167 161
278 290 292 291 301 305 306 309 311 308 302 296 243 256 275 268 252 241 232 222 214 182 157 153 146 142 155 152 147 143 140 142 143 143 146 147 149 148 161 157 170 165 159 164
285 288 283 278 280 292 312 315 312 302 293 283 281 245 244 244 242 230 234 213 207 192 167 153 152 145 158 150 149 148 145 145 143 146 147 149 155 156 152 161 163 163 170 173
274 282 273 314 314 322 333 325 326 334 332 313 279 275 283 260 276 245 238 236 201 168 163 162 151 157 155 150 145 140 141 144 147 150 150 152 154 152 149 153 155 153 166 168
299 326 315 312 316 338 338 338 345 348 351 353 358 0 347 316 308 317 42 34 324 190 161 152 148 146 145 144 141 138 139 141 139 141 146 145 143 142 144 146 149 147 126 155
309 310 346 349 336 340 340 348 349 345 350 342 341 344 335 317 129 109 70 67 83 118 139 137 134 135 138 136 132 127 134 136 139 140 141 142 143 143 145 152 150 157 163 169
349 348 349 342 333 342 338 350 339 343 338 341 338 332 324 308 210 144 124 125 117 112 115 127 125 128 131 135 132 130 131 138 138 138 145 149 147 152 153 153 158 165 166 159
343 347 351 336 331 334 333 336 327 329 335 324 323 330 329 321 266 200 164 124 104 87 95 122 133 131 134 134 130 131 136 139 142 146 144 143 145 145 149 152 155 153 137 145
349 354 345 346 333 325 324 328 331 323 326 334 339 339 327 322 297 220 140 145 143 145 165 144 147 144 144 142 135 134 139 141 139 143 145 137 137 143 146 149 150 144 148 154
351 349 337 336 342 333 325 327 325 326 329 334 340 352 356 355 357 20 55 159 168 171 142 146 148 143 143 143 134 137 143 147 146 145 147 150 152 154 154 153 152 151 157 165
324 330 332 329 322 324 318 310 318 328 323 326 346 348 356 356 360 5 51 73 12 2 138 140 141 139 141 142 138 139 144 147 148 152 155 156 146 147 151 153 156 159 166 171
308 323 337 319 320 315 328 316 322 315 323 328 334 345 354 360 1 1 6 34 111 104 107 120 131 141 140 141 134 142 148 149 147 144 145 146 151 153 156 157 164 167 167 169
305 309 312 316 321 313 308 306 328 311 322 327 326 329 326 318 338 345 348 35 109 124 115 125 136 135 142 139 143 147 149 149 153 156 156 156 156 155 158 164 163 159 158 156
332 322 312 309 316 333 332 326 320 312 273 303 308 307 309 312 305 268 330 230 133 115 111 123 137 145 136 140 145 148 148 147 148 148 146 145 150 147 148 152 151 141 129 125
339 337 335 343 341 331 334 329 322 317 313 296 303 308 310 289 253 286 251 249 153 135 164 152 139 139 132 136 139 143 148 151 153 148 149 149 150 148 143 141 142 142 129 127
335 326 314 305 295 293 314 325 325 318 322 313 285 274 286 287 292 278 188 201 170 182 193 166 156 148 145 148 148 149 146 143 146 145 145 142 139 136 135 130 130 133 129 124
320 316 327 327 329 325 323 311 322 320 321 315 299 267 229 234 260 258 239 181 187 186 175 163 164 162 146 149 147 148 149 143 142 141 129 128 126 134 131 129 125 123 124 128